| time (UTC) | temp C | wind direction | speed KPH | gust KPH | rain 1hr cm | rain 24hr cm | rain mn cm | humidity % | barometer mb |
| 20260510061103 | 11 | 174 | 0.0 | 0.0 | 0.00 | 0.00 | 0.00 | 91 | 1009.7 |
| 20260510060603 | 11 | 174 | 0.0 | 0.0 | 0.00 | 0.00 | 0.00 | 91 | 1009.8 |
| 20260510055602 | 11 | 167 | 0.0 | 3.2 | 0.00 | 0.00 | 0.00 | 92 | 1009.6 |
| 20260510055103 | 11 | 324 | 0.0 | 0.0 | 0.00 | 0.00 | 0.00 | 92 | 1009.7 |
| 20260510054604 | 11 | 324 | 0.0 | 0.0 | 0.00 | 0.00 | 0.00 | 92 | 1009.7 |
| 20260510053603 | 11 | 324 | 0.0 | 0.0 | 0.00 | 0.00 | 0.00 | 91 | 1009.7 |
| 20260510053104 | 11 | 324 | 0.0 | 0.0 | 0.00 | 0.00 | 0.00 | 91 | 1009.8 |
| 20260510052103 | 12 | 324 | 0.0 | 0.0 | 0.00 | 0.00 | 0.00 | 91 | 1009.9 |
| 20260510051603 | 12 | 324 | 0.0 | 0.0 | 0.00 | 0.00 | 0.00 | 90 | 1009.8 |
| 20260510051103 | 12 | 324 | 0.0 | 0.0 | 0.00 | 0.00 | 0.00 | 90 | 1009.9 |
| 20260510050603 | 12 | 324 | 0.0 | 0.0 | 0.00 | 0.00 | 0.00 | 90 | 1009.8 |
| 20260510050103 | 12 | 324 | 0.0 | 0.0 | 0.00 | 0.00 | 0.00 | 90 | 1009.9 |
| 20260510045603 | 12 | 324 | 0.0 | 0.0 | 0.00 | 0.00 | 0.00 | 89 | 1009.9 |
| 20260510045103 | 12 | 324 | 0.0 | 0.0 | 0.00 | 0.00 | 0.00 | 89 | 1009.8 |
| 20260510044103 | 12 | 324 | 0.0 | 0.0 | 0.00 | 0.00 | 0.00 | 90 | 1009.7 |
| 20260510043103 | 13 | 324 | 0.0 | 0.0 | 0.00 | 0.00 | 0.00 | 90 | 1009.7 |
| 20260510042603 | 13 | 324 | 0.0 | 3.2 | 0.00 | 0.00 | 0.00 | 89 | 1009.7 |
| 20260510042103 | 13 | 335 | 0.0 | 3.2 | 0.00 | 0.00 | 0.00 | 89 | 1009.6 |
| 20260510041603 | 13 | 336 | 1.6 | 3.2 | 0.00 | 0.00 | 0.00 | 89 | 1009.5 |
| 20260510041103 | 13 | 326 | 0.0 | 0.0 | 0.00 | 0.00 | 0.00 | 88 | 1009.5 |
| 20260510040603 | 13 | 326 | 0.0 | 0.0 | 0.00 | 0.00 | 0.00 | 88 | 1009.4 |
| 20260510035603 | 13 | 326 | 0.0 | 0.0 | 0.00 | 0.00 | 0.00 | 88 | 1009.4 |
| 20260510035104 | 13 | 326 | 0.0 | 0.0 | 0.00 | 0.00 | 0.00 | 88 | 1009.4 |
| 20260510034603 | 13 | 326 | 0.0 | 0.0 | 0.00 | 0.00 | 0.00 | 88 | 1009.4 |
| 20260510034103 | 13 | 326 | 0.0 | 0.0 | 0.00 | 0.00 | 0.00 | 88 | 1009.4 |
| 20260510033603 | 13 | 326 | 0.0 | 0.0 | 0.00 | 0.00 | 0.00 | 88 | 1009.4 |
| 20260510032603 | 13 | 137 | 0.0 | 0.0 | 0.00 | 0.00 | 0.00 | 87 | 1009.3 |
| 20260510032103 | 14 | 137 | 0.0 | 0.0 | 0.00 | 0.00 | 0.00 | 87 | 1009.3 |
| 20260510031603 | 14 | 137 | 0.0 | 0.0 | 0.00 | 0.00 | 0.00 | 87 | 1009.2 |
| 20260510031103 | 14 | 137 | 0.0 | 0.0 | 0.00 | 0.00 | 0.00 | 87 | 1009.3 |
| 20260510030603 | 14 | 137 | 0.0 | 0.0 | 0.00 | 0.00 | 0.00 | 87 | 1009.2 |
| 20260510025103 | 15 | 137 | 0.0 | 0.0 | 0.00 | 0.00 | 0.00 | 86 | 1009.2 |
| 20260510024104 | 15 | 137 | 0.0 | 0.0 | 0.00 | 0.00 | 0.00 | 85 | 1009.1 |
| 20260510023603 | 15 | 137 | 0.0 | 0.0 | 0.00 | 0.00 | 0.00 | 84 | 1009.0 |
| 20260510023103 | 15 | 137 | 0.0 | 0.0 | 0.00 | 0.00 | 0.00 | 84 | 1008.9 |
| 20260510022603 | 16 | 137 | 0.0 | 0.0 | 0.00 | 0.00 | 0.00 | 83 | 1008.8 |
| 20260510022103 | 16 | 137 | 0.0 | 0.0 | 0.00 | 0.00 | 0.00 | 82 | 1008.9 |
| 20260510021603 | 16 | 137 | 0.0 | 0.0 | 0.00 | 0.00 | 0.00 | 81 | 1008.9 |
| 20260510020103 | 16 | 137 | 0.0 | 0.0 | 0.00 | 0.00 | 0.00 | 80 | 1008.6 |
| 20260510015604 | 16 | 137 | 0.0 | 0.0 | 0.00 | 0.00 | 0.00 | 80 | 1008.5 |
| 20260510015103 | 16 | 137 | 0.0 | 0.0 | 0.00 | 0.00 | 0.00 | 80 | 1008.5 |
| 20260510014603 | 16 | 137 | 0.0 | 0.0 | 0.00 | 0.00 | 0.00 | 79 | 1008.5 |
| 20260510014103 | 16 | 137 | 0.0 | 0.0 | 0.00 | 0.00 | 0.00 | 80 | 1008.5 |
| 20260510013604 | 16 | 137 | 0.0 | 0.0 | 0.00 | 0.00 | 0.00 | 80 | 1008.4 |
| 20260510012603 | 17 | 137 | 0.0 | 0.0 | 0.00 | 0.00 | 0.00 | 78 | 1008.2 |
| 20260510012102 | 17 | 137 | 0.0 | 0.0 | 0.00 | 0.00 | 0.00 | 77 | 1008.0 |
| 20260510011603 | 17 | 137 | 0.0 | 0.0 | 0.00 | 0.00 | 0.00 | 76 | 1007.9 |
| 20260510011103 | 17 | 137 | 0.0 | 0.0 | 0.00 | 0.00 | 0.00 | 75 | 1007.9 |
| 20260510010603 | 17 | 137 | 0.0 | 0.0 | 0.00 | 0.00 | 0.00 | 74 | 1007.9 |
| 20260510010104 | 18 | 137 | 0.0 | 0.0 | 0.00 | 0.00 | 0.00 | 74 | 1007.7 |
| 20260510005603 | 18 | 137 | 0.0 | 0.0 | 0.00 | 0.00 | 0.00 | 73 | 1007.7 |
| 20260510005104 | 18 | 137 | 0.0 | 0.0 | 0.00 | 0.00 | 0.00 | 72 | 1007.6 |
| 20260510004603 | 18 | 137 | 0.0 | 0.0 | 0.00 | 0.00 | 0.00 | 71 | 1007.5 |
| 20260510004103 | 18 | 137 | 0.0 | 0.0 | 0.00 | 0.00 | 0.00 | 70 | 1007.5 |
| 20260510003603 | 19 | 137 | 0.0 | 0.0 | 0.00 | 0.00 | 0.00 | 68 | 1007.5 |
| 20260510003104 | 19 | 137 | 0.0 | 0.0 | 0.00 | 0.00 | 0.00 | 67 | 1007.5 |
| 20260510002604 | 19 | 137 | 0.0 | 0.0 | 0.00 | 0.00 | 0.00 | 67 | 1007.5 |
| 20260510002103 | 20 | 137 | 0.0 | 0.0 | 0.00 | 0.00 | 0.00 | 66 | 1007.4 |
| 20260510001603 | 20 | 137 | 0.0 | 0.0 | 0.00 | 0.00 | 0.00 | 64 | 1007.3 |
| 20260510001103 | 20 | 137 | 0.0 | 0.0 | 0.00 | 0.00 | 0.00 | 63 | 1007.3 |
| 20260510000603 | 21 | 137 | 0.0 | 0.0 | 0.00 | 0.00 | 0.00 | 62 | 1007.2 |
| 20260510000103 | 21 | 137 | 0.0 | 0.0 | 0.00 | 0.00 | 0.00 | 61 | 1007.2 |
| 20260509235103 | 22 | 137 | 0.0 | 0.0 | 0.00 | 0.00 | 0.00 | 58 | 1007.1 |
| 20260509234603 | 22 | 137 | 0.0 | 0.0 | 0.00 | 0.00 | 0.00 | 57 | 1007.1 |
| 20260509234103 | 22 | 137 | 0.0 | 0.0 | 0.00 | 0.00 | 0.00 | 56 | 1007.0 |
| 20260509233604 | 22 | 137 | 0.0 | 0.0 | 0.00 | 0.00 | 0.00 | 54 | 1007.0 |
| 20260509233104 | 22 | 137 | 0.0 | 3.2 | 0.00 | 0.00 | 0.00 | 54 | 1006.9 |
| 20260509232603 | 23 | 193 | 0.0 | 3.2 | 0.00 | 0.00 | 0.00 | 53 | 1006.9 |
| 20260509232103 | 23 | 131 | 1.6 | 3.2 | 0.00 | 0.00 | 0.00 | 53 | 1006.9 |
| 20260509231604 | 23 | 139 | 0.0 | 8.0 | 0.00 | 0.00 | 0.00 | 53 | 1006.9 |
| 20260509231104 | 23 | 132 | 1.6 | 4.8 | 0.00 | 0.00 | 0.00 | 52 | 1006.9 |
| 20260509230603 | 23 | 194 | 3.2 | 8.0 | 0.00 | 0.00 | 0.00 | 51 | 1006.9 |
| 20260509225603 | 23 | 182 | 1.6 | 4.8 | 0.00 | 0.00 | 0.00 | 48 | 1006.9 |
| 20260509225103 | 23 | 325 | 0.0 | 3.2 | 0.00 | 0.00 | 0.00 | 46 | 1006.8 |
| 20260509224603 | 24 | 150 | 0.0 | 1.6 | 0.00 | 0.00 | 0.00 | 45 | 1006.8 |
| 20260509224103 | 24 | 307 | 0.0 | 3.2 | 0.00 | 0.00 | 0.00 | 45 | 1006.8 |
| 20260509223603 | 24 | 228 | 0.0 | 3.2 | 0.00 | 0.00 | 0.00 | 45 | 1006.8 |
| 20260509223103 | 24 | 299 | 1.6 | 9.7 | 0.00 | 0.00 | 0.00 | 46 | 1006.8 |
| 20260509222103 | 24 | 327 | 1.6 | 4.8 | 0.00 | 0.00 | 0.00 | 44 | 1006.8 |
| 20260509221603 | 23 | 253 | 3.2 | 8.0 | 0.00 | 0.00 | 0.00 | 46 | 1006.9 |
| 20260509221103 | 23 | 188 | 0.0 | 9.7 | 0.00 | 0.00 | 0.00 | 47 | 1006.9 |
| 20260509220603 | 23 | 218 | 1.6 | 8.0 | 0.00 | 0.00 | 0.00 | 47 | 1006.9 |
| 20260509220104 | 23 | 233 | 0.0 | 3.2 | 0.00 | 0.00 | 0.00 | 48 | 1006.8 |
| 20260509215603 | 23 | 29 | 3.2 | 8.0 | 0.00 | 0.00 | 0.00 | 47 | 1006.8 |
| 20260509215103 | 23 | 304 | 3.2 | 8.0 | 0.00 | 0.00 | 0.00 | 46 | 1006.8 |
| 20260509214103 | 23 | 212 | 6.4 | 12.9 | 0.00 | 0.00 | 0.00 | 45 | 1006.7 |
| 20260509213604 | 23 | 261 | 3.2 | 8.0 | 0.00 | 0.00 | 0.00 | 45 | 1006.7 |
| 20260509213103 | 23 | 298 | 3.2 | 8.0 | 0.00 | 0.00 | 0.00 | 47 | 1006.7 |
| 20260509212603 | 23 | 196 | 4.8 | 12.9 | 0.00 | 0.00 | 0.00 | 46 | 1006.7 |
| 20260509212103 | 23 | 313 | 1.6 | 4.8 | 0.00 | 0.00 | 0.00 | 46 | 1006.6 |
| 20260509211603 | 23 | 307 | 4.8 | 9.7 | 0.00 | 0.00 | 0.00 | 46 | 1006.6 |
| 20260509211103 | 23 | 268 | 6.4 | 14.5 | 0.00 | 0.00 | 0.00 | 47 | 1006.6 |
| 20260509210604 | 25 | 247 | 6.4 | 14.5 | 0.00 | 0.00 | 0.00 | 46 | 1006.6 |
| 20260509205104 | 24 | 197 | 6.4 | 14.5 | 0.00 | 0.00 | 0.00 | 45 | 1006.6 |
| 20260509204104 | 25 | 164 | 3.2 | 11.3 | 0.00 | 0.00 | 0.00 | 46 | 1006.7 |
| 20260509203603 | 24 | 144 | 4.8 | 16.1 | 0.00 | 0.00 | 0.00 | 48 | 1006.7 |
| 20260509203103 | 24 | 214 | 1.6 | 16.1 | 0.00 | 0.00 | 0.00 | 48 | 1006.7 |
| 20260509202103 | 23 | 300 | 3.2 | 19.3 | 0.00 | 0.00 | 0.00 | 49 | 1006.7 |
| 20260509201604 | 23 | 223 | 4.8 | 14.5 | 0.00 | 0.00 | 0.00 | 49 | 1006.6 |
| 20260509201103 | 23 | 190 | 6.4 | 11.3 | 0.00 | 0.00 | 0.00 | 51 | 1006.7 |
| 20260509200604 | 23 | 224 | 3.2 | 16.1 | 0.00 | 0.00 | 0.00 | 52 | 1006.8 |
| 20260509195604 | 23 | 215 | 3.2 | 11.3 | 0.00 | 0.00 | 0.00 | 52 | 1007.0 |
| 20260509195104 | 23 | 263 | 1.6 | 8.0 | 0.00 | 0.00 | 0.00 | 52 | 1007.2 |
| 20260509194603 | 23 | 215 | 6.4 | 16.1 | 0.00 | 0.00 | 0.00 | 53 | 1007.2 |
| 20260509194104 | 23 | 201 | 8.0 | 14.5 | 0.00 | 0.00 | 0.00 | 53 | 1007.3 |
| 20260509193604 | 23 | 205 | 4.8 | 16.1 | 0.00 | 0.00 | 0.00 | 51 | 1007.4 |
| 20260509193103 | 22 | 192 | 3.2 | 19.3 | 0.00 | 0.00 | 0.00 | 53 | 1007.4 |
| 20260509192603 | 22 | 176 | 9.7 | 14.5 | 0.00 | 0.00 | 0.00 | 54 | 1007.6 |
| 20260509192103 | 22 | 212 | 6.4 | 11.3 | 0.00 | 0.00 | 0.00 | 55 | 1007.7 |
| 20260509191604 | 22 | 232 | 4.8 | 14.5 | 0.00 | 0.00 | 0.00 | 54 | 1007.8 |
| 20260509191103 | 21 | 167 | 3.2 | 14.5 | 0.00 | 0.00 | 0.00 | 56 | 1007.9 |
| 20260509190604 | 21 | 191 | 11.3 | 22.5 | 0.00 | 0.00 | 0.00 | 56 | 1007.9 |
| 20260509190104 | 21 | 184 | 8.0 | 20.9 | 0.00 | 0.00 | 0.00 | 56 | 1008.0 |
| 20260509185603 | 21 | 193 | 4.8 | 14.5 | 0.00 | 0.00 | 0.00 | 57 | 1008.0 |
| 20260509184604 | 21 | 255 | 6.4 | 14.5 | 0.00 | 0.00 | 0.00 | 57 | 1007.9 |
| 20260509184104 | 21 | 230 | 4.8 | 12.9 | 0.00 | 0.00 | 0.00 | 56 | 1007.9 |
| 20260509183104 | 21 | 240 | 4.8 | 14.5 | 0.00 | 0.00 | 0.00 | 57 | 1008.0 |
| 20260509182604 | 21 | 231 | 3.2 | 9.7 | 0.00 | 0.00 | 0.00 | 57 | 1008.2 |
| 20260509182104 | 21 | 294 | 1.6 | 8.0 | 0.00 | 0.00 | 0.00 | 57 | 1008.3 |
| 20260509181603 | 21 | 306 | 1.6 | 4.8 | 0.00 | 0.00 | 0.00 | 58 | 1008.3 |
| 20260509181104 | 20 | 297 | 3.2 | 8.0 | 0.00 | 0.00 | 0.00 | 58 | 1008.5 |
| 20260509180603 | 20 | 161 | 1.6 | 9.7 | 0.00 | 0.00 | 0.00 | 58 | 1008.6 |
| 20260509180103 | 20 | 312 | 3.2 | 9.7 | 0.00 | 0.00 | 0.00 | 59 | 1008.7 |
| 20260509175104 | 20 | 288 | 1.6 | 11.3 | 0.00 | 0.00 | 0.00 | 58 | 1008.9 |
| 20260509174103 | 20 | 141 | 3.2 | 9.7 | 0.00 | 0.00 | 0.00 | 58 | 1009.0 |
| 20260509173603 | 20 | 272 | 4.8 | 8.0 | 0.00 | 0.00 | 0.00 | 58 | 1009.1 |
| 20260509173103 | 20 | 241 | 4.8 | 11.3 | 0.00 | 0.00 | 0.00 | 58 | 1009.0 |
| 20260509172604 | 20 | 209 | 3.2 | 14.5 | 0.00 | 0.00 | 0.00 | 58 | 1009.0 |
| 20260509172103 | 20 | 189 | 4.8 | 14.5 | 0.00 | 0.00 | 0.00 | 58 | 1009.0 |
| 20260509171603 | 20 | 222 | 3.2 | 11.3 | 0.00 | 0.00 | 0.00 | 58 | 1009.0 |
| 20260509171104 | 20 | 290 | 3.2 | 12.9 | 0.00 | 0.00 | 0.00 | 58 | 1009.0 |
| 20260509170604 | 20 | 241 | 6.4 | 14.5 | 0.00 | 0.00 | 0.00 | 58 | 1009.0 |
| 20260509165603 | 21 | 226 | 6.4 | 19.3 | 0.00 | 0.00 | 0.00 | 56 | 1009.0 |
| 20260509165104 | 20 | 181 | 3.2 | 14.5 | 0.00 | 0.00 | 0.00 | 58 | 1009.0 |
| 20260509164604 | 20 | 255 | 4.8 | 16.1 | 0.00 | 0.00 | 0.00 | 57 | 1009.0 |
| 20260509164104 | 20 | 200 | 4.8 | 12.9 | 0.00 | 0.00 | 0.00 | 58 | 1009.1 |
| 20260509163604 | 20 | 187 | 4.8 | 14.5 | 0.00 | 0.00 | 0.00 | 57 | 1009.1 |
| 20260509163104 | 20 | 246 | 8.0 | 20.9 | 0.00 | 0.00 | 0.00 | 59 | 1009.2 |
| 20260509162104 | 21 | 239 | 6.4 | 16.1 | 0.00 | 0.00 | 0.00 | 57 | 1009.2 |
| 20260509161604 | 20 | 159 | 4.8 | 12.9 | 0.00 | 0.00 | 0.00 | 56 | 1009.2 |
| 20260509161103 | 20 | 267 | 3.2 | 19.3 | 0.00 | 0.00 | 0.00 | 58 | 1009.2 |
| 20260509160104 | 20 | 174 | 9.7 | 20.9 | 0.00 | 0.00 | 0.00 | 59 | 1009.3 |
| 20260509155103 | 20 | 154 | 4.8 | 16.1 | 0.00 | 0.00 | 0.00 | 57 | 1009.3 |
| 20260509154604 | 20 | 158 | 4.8 | 22.5 | 0.00 | 0.00 | 0.00 | 58 | 1009.4 |
| 20260509154103 | 20 | 208 | 3.2 | 16.1 | 0.00 | 0.00 | 0.00 | 58 | 1009.5 |
| 20260509153604 | 20 | 215 | 4.8 | 19.3 | 0.00 | 0.00 | 0.00 | 57 | 1009.5 |
| 20260509153103 | 20 | 287 | 3.2 | 9.7 | 0.00 | 0.00 | 0.00 | 57 | 1009.5 |
| 20260509152604 | 20 | 178 | 9.7 | 20.9 | 0.00 | 0.00 | 0.00 | 56 | 1009.5 |
| 20260509152103 | 20 | 200 | 8.0 | 19.3 | 0.00 | 0.00 | 0.00 | 55 | 1009.5 |
| 20260509151603 | 20 | 225 | 3.2 | 12.9 | 0.00 | 0.00 | 0.00 | 56 | 1009.5 |
| 20260509151104 | 19 | 181 | 3.2 | 14.5 | 0.00 | 0.00 | 0.00 | 56 | 1009.6 |
| 20260509150603 | 19 | 174 | 4.8 | 19.3 | 0.00 | 0.00 | 0.00 | 57 | 1009.7 |
| 20260509150104 | 18 | 194 | 9.7 | 16.1 | 0.00 | 0.00 | 0.00 | 57 | 1009.7 |
| 20260509145604 | 18 | 147 | 6.4 | 22.5 | 0.00 | 0.00 | 0.00 | 58 | 1009.7 |
| 20260509145104 | 18 | 194 | 8.0 | 19.3 | 0.00 | 0.00 | 0.00 | 58 | 1009.7 |
| 20260509144604 | 18 | 219 | 4.8 | 16.1 | 0.00 | 0.00 | 0.00 | 58 | 1009.8 |
| 20260509143604 | 17 | 228 | 4.8 | 14.5 | 0.00 | 0.00 | 0.00 | 60 | 1010.0 |
| 20260509143103 | 17 | 255 | 8.0 | 20.9 | 0.00 | 0.00 | 0.00 | 61 | 1010.1 |
| 20260509142604 | 17 | 209 | 4.8 | 14.5 | 0.00 | 0.00 | 0.00 | 61 | 1010.2 |
| 20260509142103 | 17 | 194 | 3.2 | 12.9 | 0.00 | 0.00 | 0.00 | 60 | 1010.3 |
| 20260509141603 | 16 | 175 | 4.8 | 16.1 | 0.00 | 0.00 | 0.00 | 62 | 1010.3 |
| 20260509141103 | 16 | 158 | 3.2 | 12.9 | 0.00 | 0.00 | 0.00 | 62 | 1010.4 |
| 20260509140103 | 16 | 205 | 6.4 | 14.5 | 0.00 | 0.00 | 0.00 | 62 | 1010.4 |
| 20260509135602 | 16 | 184 | 1.6 | 11.3 | 0.00 | 0.00 | 0.00 | 63 | 1010.4 |
| 20260509135103 | 15 | 183 | 6.4 | 12.9 | 0.00 | 0.00 | 0.00 | 63 | 1010.3 |
| 20260509134602 | 15 | 179 | 3.2 | 8.0 | 0.00 | 0.00 | 0.00 | 63 | 1010.3 |
| 20260509134102 | 15 | 187 | 3.2 | 8.0 | 0.00 | 0.00 | 0.00 | 63 | 1010.4 |
| 20260509133602 | 15 | 188 | 0.0 | 8.0 | 0.00 | 0.00 | 0.00 | 63 | 1010.4 |
| 20260509133103 | 15 | 262 | 4.8 | 8.0 | 0.00 | 0.00 | 0.00 | 62 | 1010.4 |
| 20260509132602 | 15 | 189 | 0.0 | 4.8 | 0.00 | 0.00 | 0.00 | 64 | 1010.5 |
| 20260509132102 | 15 | 203 | 3.2 | 9.7 | 0.00 | 0.00 | 0.00 | 64 | 1010.6 |
| 20260509131603 | 15 | 268 | 3.2 | 9.7 | 0.00 | 0.00 | 0.00 | 63 | 1010.5 |
| 20260509131103 | 15 | 199 | 6.4 | 9.7 | 0.00 | 0.00 | 0.00 | 63 | 1010.5 |
| 20260509130602 | 15 | 227 | 3.2 | 8.0 | 0.00 | 0.00 | 0.00 | 63 | 1010.5 |
| 20260509125603 | 15 | 185 | 8.0 | 16.1 | 0.00 | 0.00 | 0.00 | 62 | 1010.3 |
| 20260509125103 | 15 | 158 | 8.0 | 19.3 | 0.00 | 0.00 | 0.00 | 62 | 1010.3 |
| 20260509124103 | 15 | 203 | 3.2 | 14.5 | 0.00 | 0.00 | 0.00 | 62 | 1010.4 |
| 20260509123603 | 15 | 106 | 9.7 | 12.9 | 0.00 | 0.00 | 0.00 | 61 | 1010.4 |
| 20260509122603 | 15 | 167 | 3.2 | 12.9 | 0.00 | 0.00 | 0.00 | 61 | 1010.4 |
| 20260509122102 | 15 | 177 | 6.4 | 12.9 | 0.00 | 0.00 | 0.00 | 60 | 1010.3 |
| 20260509121603 | 15 | 188 | 8.0 | 14.5 | 0.00 | 0.00 | 0.00 | 60 | 1010.4 |
| 20260509121102 | 14 | 195 | 4.8 | 11.3 | 0.00 | 0.00 | 0.00 | 60 | 1010.4 |
| 20260509120603 | 14 | 183 | 4.8 | 12.9 | 0.00 | 0.00 | 0.00 | 60 | 1010.5 |
| 20260509115602 | 14 | 177 | 4.8 | 14.5 | 0.00 | 0.00 | 0.00 | 60 | 1010.3 |
| 20260509115103 | 14 | 177 | 4.8 | 14.5 | 0.00 | 0.00 | 0.00 | 60 | 1010.2 |
| 20260509114603 | 14 | 182 | 3.2 | 9.7 | 0.00 | 0.00 | 0.00 | 60 | 1010.3 |
| 20260509114102 | 14 | 175 | 3.2 | 11.3 | 0.00 | 0.00 | 0.00 | 60 | 1010.3 |
| 20260509113603 | 14 | 160 | 6.4 | 9.7 | 0.00 | 0.00 | 0.00 | 60 | 1010.3 |
| 20260509112602 | 14 | 250 | 1.6 | 8.0 | 0.00 | 0.00 | 0.00 | 61 | 1010.4 |
| 20260509112102 | 14 | 178 | 4.8 | 9.7 | 0.00 | 0.00 | 0.00 | 60 | 1010.2 |
| 20260509111603 | 14 | 170 | 4.8 | 9.7 | 0.00 | 0.00 | 0.00 | 61 | 1010.0 |
| 20260509110603 | 13 | 163 | 4.8 | 11.3 | 0.00 | 0.00 | 0.00 | 61 | 1010.1 |
| 20260509105602 | 13 | 179 | 6.4 | 11.3 | 0.00 | 0.00 | 0.00 | 61 | 1010.0 |
| 20260509105103 | 13 | 187 | 4.8 | 11.3 | 0.00 | 0.00 | 0.00 | 61 | 1010.0 |
| 20260509104603 | 13 | 193 | 4.8 | 12.9 | 0.00 | 0.00 | 0.00 | 61 | 1009.9 |
| 20260509104108 | 13 | 183 | 4.8 | 11.3 | 0.00 | 0.00 | 0.00 | 61 | 1009.9 |
| 20260509103602 | 13 | 204 | 4.8 | 11.3 | 0.00 | 0.00 | 0.00 | 61 | 1010.0 |
| 20260509102602 | 13 | 175 | 3.2 | 8.0 | 0.00 | 0.00 | 0.00 | 61 | 1010.0 |
| 20260509101602 | 13 | 194 | 3.2 | 8.0 | 0.00 | 0.00 | 0.00 | 60 | 1009.9 |
| 20260509101103 | 13 | 212 | 1.6 | 8.0 | 0.00 | 0.00 | 0.00 | 61 | 1009.8 |
| 20260509100603 | 13 | 172 | 1.6 | 3.2 | 0.00 | 0.00 | 0.00 | 60 | 1009.9 |
| 20260509100103 | 13 | 197 | 4.8 | 8.0 | 0.00 | 0.00 | 0.00 | 60 | 1009.9 |
| 20260509095603 | 13 | 176 | 4.8 | 9.7 | 0.00 | 0.00 | 0.00 | 60 | 1009.8 |
| 20260509095103 | 13 | 159 | 4.8 | 9.7 | 0.00 | 0.00 | 0.00 | 60 | 1009.8 |
| 20260509094603 | 13 | 178 | 4.8 | 9.7 | 0.00 | 0.00 | 0.00 | 59 | 1009.7 |
| 20260509094103 | 13 | 171 | 1.6 | 8.0 | 0.00 | 0.00 | 0.00 | 59 | 1009.8 |
| 20260509093603 | 14 | 190 | 3.2 | 8.0 | 0.00 | 0.00 | 0.00 | 59 | 1009.8 |
| 20260509092603 | 14 | 197 | 3.2 | 8.0 | 0.00 | 0.00 | 0.00 | 59 | 1009.9 |
| 20260509091603 | 14 | 245 | 1.6 | 4.8 | 0.00 | 0.00 | 0.00 | 59 | 1010.2 |
| 20260509091102 | 14 | 198 | 3.2 | 8.0 | 0.00 | 0.00 | 0.00 | 59 | 1010.1 |
| 20260509084103 | 14 | 187 | 3.2 | 12.9 | 0.00 | 0.00 | 0.00 | 58 | 1010.2 |
| 20260509083603 | 14 | 182 | 8.0 | 14.5 | 0.00 | 0.00 | 0.00 | 57 | 1010.2 |
| 20260509083102 | 14 | 203 | 4.8 | 12.9 | 0.00 | 0.00 | 0.00 | 57 | 1010.2 |
| 20260509082603 | 14 | 182 | 4.8 | 12.9 | 0.00 | 0.00 | 0.00 | 57 | 1010.2 |
| 20260509082102 | 14 | 172 | 4.8 | 16.1 | 0.00 | 0.00 | 0.00 | 57 | 1010.3 |
| 20260509081603 | 14 | 197 | 3.2 | 14.5 | 0.00 | 0.00 | 0.00 | 57 | 1010.3 |
| 20260509081103 | 14 | 184 | 4.8 | 14.5 | 0.00 | 0.00 | 0.00 | 57 | 1010.4 |
| 20260509080602 | 14 | 183 | 8.0 | 12.9 | 0.00 | 0.00 | 0.00 | 57 | 1010.5 |
| 20260509075603 | 14 | 181 | 6.4 | 12.9 | 0.00 | 0.00 | 0.00 | 58 | 1010.5 |
| 20260509075103 | 14 | 155 | 1.6 | 4.8 | 0.00 | 0.00 | 0.00 | 59 | 1010.6 |
| 20260509074603 | 14 | 209 | 3.2 | 14.5 | 0.00 | 0.00 | 0.00 | 58 | 1010.6 |
| 20260509074103 | 14 | 165 | 3.2 | 12.9 | 0.00 | 0.00 | 0.00 | 58 | 1010.6 |
| 20260509073603 | 14 | 165 | 4.8 | 12.9 | 0.00 | 0.00 | 0.00 | 56 | 1010.6 |
| 20260509073102 | 14 | 189 | 8.0 | 14.5 | 0.00 | 0.00 | 0.00 | 55 | 1010.6 |
| 20260509072103 | 14 | 162 | 4.8 | 12.9 | 0.00 | 0.00 | 0.00 | 55 | 1010.5 |
| 20260509071602 | 14 | 181 | 6.4 | 11.3 | 0.00 | 0.00 | 0.00 | 55 | 1010.5 |
| 20260509070603 | 14 | 182 | 8.0 | 12.9 | 0.00 | 0.00 | 0.00 | 55 | 1010.5 |
| 20260509065603 | 15 | 153 | 4.8 | 8.0 | 0.00 | 0.00 | 0.00 | 55 | 1010.5 |
| 20260509064603 | 15 | 195 | 4.8 | 9.7 | 0.00 | 0.00 | 0.00 | 54 | 1010.5 |
| 20260509064103 | 15 | 166 | 6.4 | 11.3 | 0.00 | 0.00 | 0.00 | 54 | 1010.5 |
| 20260509063103 | 15 | 164 | 4.8 | 12.9 | 0.00 | 0.00 | 0.00 | 54 | 1010.6 |
| 20260509061603 | 15 | 180 | 4.8 | 11.3 | 0.00 | 0.00 | 0.00 | 54 | 1010.7 |